Harlan, KY

12:35 AM EDT on June 25, 2017 (GMT -0400)
Harlan

Weather History for KI35 - July, 2013

Change the Weather History Date:

Sunday, July 21, 2013

  Actual Average (KLOZ) Record (KLOZ)
Temperature  
Mean Temperature 72 °F -  
Max Temperature 77 °F 86 °F 95 °F (2008)
Min Temperature 68 °F 65 °F 54 °F (1971)
Cooling Degree Days 8    
Growing Degree Days 22 (Base 50)    
Moisture  
Dew Point 68 °F    
Average Humidity 93    
Maximum Humidity 100    
Minimum Humidity 78    
Precipitation  
Precipitation 0.00 in - - ()
Sea Level Pressure  
Sea Level Pressure 30.02 in    
Wind  
Wind Speed 1 mph (NNW)    
Max Wind Speed 7 mph    
Max Gust Speed -    
Visibility 5 miles    
Events      
Averages and records for this station are not official NWS values.
T = Trace of Precipitation, MM = Missing Value Source: NWS Daily Summary

Daily Weather History Graph

Daily Weather History Graph

Search for Another Location

Airport or City:

Trip Planner

Search our weather history database for the weather conditions in past years. The results will help you decide how hot, cold, wet, or windy it might be!

Date:

Astronomy

Jul. 21, 2013 Rise Set
Actual Time 6:30 AM EDT 8:48 PM EDT
Civil Twilight 6:01 AM EDT 9:18 PM EDT
Nautical Twilight 5:24 AM EDT 9:54 PM EDT
Astronomical Twilight 4:45 AM EDT 10:33 PM EDT
Moon 7:47 PM EDT (7/21) 5:14 AM EDT (7/21)
Length of Visible Light 15h 17m
Length of Day
14h 18m
Waxing Gibbous, 98% of the Moon is Illuminated
Jul 21
Waxing Gibbous
Jul 22
Full
Jul 29
Last Quarter
Aug 6
New
Aug 14
First Quarter

Hourly Weather History & Observations

Time (EDT) Temp. Dew Point Humidity Pressure Visibility Wind Dir Wind Speed Gust Speed Precip Events Conditions
12:15 AM 71.6 °F 69.8 °F 94% 30.03 in 5.0 mi Calm Calm - N/A   Scattered Clouds
12:35 AM 69.8 °F 68.0 °F 94% 30.03 in 2.0 mi North - - N/A   Mostly Cloudy
12:55 AM 69.8 °F 68.0 °F 94% 30.03 in 4.0 mi Calm Calm - N/A   Scattered Clouds
1:15 AM 69.8 °F 68.0 °F 94% 30.03 in 3.0 mi North - - N/A   Mostly Cloudy
1:35 AM 69.8 °F 68.0 °F 94% 30.02 in 3.0 mi North - - N/A   Overcast
1:55 AM 69.8 °F 68.0 °F 94% 30.01 in 0.5 mi North - - N/A   Overcast
2:15 AM 69.8 °F 68.0 °F 94% 30.01 in 0.5 mi Calm Calm - N/A   Overcast
2:35 AM 69.8 °F 68.0 °F 94% 30.01 in 0.5 mi North - - N/A   Overcast
2:55 AM 69.8 °F 68.0 °F 94% 30.01 in 0.5 mi North - - N/A   Overcast
3:15 AM 69.8 °F 68.0 °F 94% 30.01 in 0.2 mi North - - N/A   Overcast
3:35 AM 69.8 °F 68.0 °F 94% 30.01 in 0.5 mi North - - N/A   Overcast
3:55 AM 69.8 °F 68.0 °F 94% 30.01 in 0.5 mi North - - N/A   Overcast
4:15 AM 69.8 °F 68.0 °F 94% 30.00 in 0.2 mi Calm Calm - N/A   Overcast
4:35 AM 69.8 °F 68.0 °F 94% 30.01 in 0.2 mi Calm Calm - N/A   Overcast
4:55 AM 68.0 °F 68.0 °F 100% 30.01 in 0.2 mi North - - N/A   Overcast
5:15 AM 68.0 °F 68.0 °F 100% 30.00 in 0.2 mi NE 3.5 mph - N/A   Overcast
5:35 AM 68.0 °F 68.0 °F 100% 30.01 in 0.2 mi NNE 3.5 mph - N/A   Overcast
5:55 AM 68.0 °F 68.0 °F 100% 30.02 in 0.2 mi Calm Calm - N/A   Overcast
6:15 AM 68.0 °F 68.0 °F 100% 30.02 in 0.2 mi North - - N/A   Overcast
6:35 AM 68.0 °F 68.0 °F 100% 30.02 in 0.2 mi Calm Calm - N/A   Overcast
6:55 AM 68.0 °F 68.0 °F 100% 30.03 in 0.2 mi Calm Calm - N/A   Overcast
7:15 AM 68.0 °F 68.0 °F 100% 30.03 in 0.2 mi North - - N/A   Overcast
7:35 AM 68.0 °F 68.0 °F 100% 30.04 in 0.2 mi Calm Calm - N/A   Overcast
7:55 AM 68.0 °F 68.0 °F 100% 30.04 in 0.2 mi NNE 3.5 mph - N/A   Overcast
8:15 AM 69.8 °F 68.0 °F 94% 30.05 in 0.2 mi SSE 3.5 mph - N/A   Overcast
8:35 AM 69.8 °F 68.0 °F 94% 30.05 in 0.2 mi North - - N/A   Overcast
8:55 AM 69.8 °F 68.0 °F 94% 30.05 in 0.5 mi Calm Calm - N/A   Overcast
9:15 AM 69.8 °F 68.0 °F 94% 30.05 in 1.8 mi North - - N/A   Overcast
9:35 AM 69.8 °F 69.8 °F 100% 30.05 in 1.0 mi North - - N/A   Overcast
9:55 AM 71.6 °F 69.8 °F 94% 30.05 in 5.0 mi North - - N/A   Overcast
10:15 AM 71.6 °F 69.8 °F 94% 30.06 in 7.0 mi WNW 3.5 mph - N/A   Overcast
10:35 AM 71.6 °F 69.8 °F 94% 30.06 in 7.0 mi East 3.5 mph - N/A   Overcast
10:55 AM 73.4 °F 69.8 °F 88% 30.06 in 10.0 mi Calm Calm - N/A   Overcast
11:15 AM 73.4 °F 69.8 °F 88% 30.06 in 10.0 mi NNE 3.5 mph - N/A   Overcast
11:35 AM 73.4 °F 69.8 °F 88% 30.06 in 10.0 mi Calm Calm - N/A   Overcast
11:55 AM 73.4 °F 69.8 °F 88% 30.06 in 7.0 mi Calm Calm - N/A   Overcast
12:15 PM 75.2 °F 71.6 °F 89% 30.06 in 10.0 mi Calm Calm - N/A   Overcast
12:35 PM 77.0 °F 69.8 °F 78% 30.06 in 10.0 mi SSW 3.5 mph - N/A   Overcast
12:55 PM 75.2 °F 69.8 °F 83% 30.06 in 10.0 mi Calm Calm - N/A   Overcast
1:15 PM 75.2 °F 69.8 °F 83% 30.05 in 7.0 mi Calm Calm - N/A   Mostly Cloudy
2:15 PM 73.4 °F 69.8 °F 88% 30.04 in 10.0 mi Calm Calm - N/A   Overcast
2:35 PM 73.4 °F 69.8 °F 88% 30.04 in 7.0 mi West 6.9 mph - N/A   Overcast
2:55 PM 69.8 °F 68.0 °F 94% 30.04 in 7.0 mi West 4.6 mph - N/A   Overcast
3:15 PM 69.8 °F 68.0 °F 94% 30.03 in 5.0 mi WSW 4.6 mph - N/A   Overcast
3:35 PM 69.8 °F 68.0 °F 94% 30.03 in 7.0 mi West 6.9 mph - N/A   Overcast
3:55 PM 69.8 °F 68.0 °F 94% 30.02 in 7.0 mi West 3.5 mph - N/A   Overcast
4:35 PM 69.8 °F 68.0 °F 94% 30.01 in 10.0 mi ESE 4.6 mph - N/A   Scattered Clouds
4:55 PM 69.8 °F 68.0 °F 94% 30.00 in 10.0 mi Calm Calm - N/A   Scattered Clouds
5:15 PM 71.6 °F 68.0 °F 88% 30.00 in 10.0 mi North - - N/A   Scattered Clouds
5:35 PM 71.6 °F 68.0 °F 88% 30.00 in 10.0 mi Calm Calm - N/A   Scattered Clouds
5:55 PM 71.6 °F 68.0 °F 88% 30.00 in 10.0 mi Calm Calm - N/A   Scattered Clouds
6:15 PM 71.6 °F 68.0 °F 88% 29.98 in 10.0 mi North - - N/A   Scattered Clouds
6:35 PM 71.6 °F 68.0 °F 88% 29.98 in 10.0 mi North - - N/A   Clear
6:55 PM 71.6 °F 69.8 °F 94% 29.98 in 10.0 mi North - - N/A   Scattered Clouds
7:15 PM 71.6 °F 69.8 °F 94% 29.98 in 10.0 mi North - - N/A   Scattered Clouds
7:35 PM 71.6 °F 69.8 °F 94% 29.97 in 10.0 mi Calm Calm - N/A   Scattered Clouds
7:55 PM 71.6 °F 69.8 °F 94% 29.98 in 10.0 mi East 3.5 mph - N/A   Clear
8:15 PM 71.6 °F 69.8 °F 94% 30.00 in 10.0 mi Calm Calm - N/A   Clear
8:35 PM 71.6 °F 69.8 °F 94% 30.00 in 10.0 mi Calm Calm - N/A   Scattered Clouds
8:55 PM 71.6 °F 66.2 °F 83% 30.01 in 10.0 mi South 5.8 mph - N/A   Scattered Clouds
9:15 PM 71.6 °F 66.2 °F 83% 30.02 in 10.0 mi North - - N/A   Scattered Clouds
9:35 PM 69.8 °F 68.0 °F 94% 30.03 in 0.5 mi North - - N/A   Overcast
9:55 PM 69.8 °F 68.0 °F 94% 30.02 in 7.0 mi Calm Calm - N/A   Scattered Clouds
10:15 PM 69.8 °F 68.0 °F 94% 30.02 in 7.0 mi Calm Calm - N/A   Clear
10:35 PM 69.8 °F 68.0 °F 94% 30.02 in 10.0 mi North - - N/A   Clear
10:55 PM 69.8 °F 68.0 °F 94% 30.02 in 1.2 mi Calm Calm - N/A   Mostly Cloudy
11:15 PM 68.0 °F 68.0 °F 100% 30.03 in 0.5 mi NNE 6.9 mph - N/A   Overcast
11:35 PM 68.0 °F 68.0 °F 100% 30.03 in 1.8 mi North - - N/A   Mostly Cloudy
11:55 PM 68.0 °F 66.2 °F 94% 30.03 in 0.5 mi NNE 3.5 mph - N/A   Overcast